QPF
0.00 0.00 0.00 0.00 0.00 0.00 0.00 0.00 0.00 0.00 0.00 0.00 0.00 0.00 0.00 0.00 0.00 0.00 0.00 0.00 0.00 0.00 0.00 0.00 0.00 0.00 0.00 0.00 0.00 0.00 0.00 0.00 0.00 0.00 0.00 0.00 0.00 0.00 0.00 0.00 0.00 0.00
0.06 0.00 0.00 0.00 0.00 0.00 0.00 0.00 0.00 0.00 0.00 0.00 0.00 0.00 0.00 0.00 0.00 0.00 0.00 0.00 0.00 0.00 0.00 0.00 0.00 0.00 0.00 0.00 0.00 0.00 0.00 0.00 0.00 0.00 0.00 0.00 0.00 0.00 0.00 0.00 0.00 0.00
0.04 0.03 0.00 0.00 0.00 0.00 0.00 0.00 0.00 0.00 0.00 0.00 0.00 0.00 0.00 0.00 0.00 0.00 0.00 0.00 0.00 0.00 0.00 0.00 0.00 0.00 0.00 0.00 0.00 0.00 0.00 0.00 0.00 0.00 0.00 0.00 0.00 0.00 0.00 0.00 0.00 0.00
0.02 0.01 0.02 0.00 0.00 0.00 0.00 0.00 0.00 0.00 0.00 0.00 0.00 0.00 0.00 0.00 0.00 0.00 0.00 0.00 0.00 0.00 0.00 0.00 0.00 0.00 0.00 0.00 0.00 0.00 0.00 0.00 0.00 0.00 0.00 0.00 0.00 0.00 0.00 0.00 0.00 0.00
0.00 0.01 0.00 0.00 0.00 0.00 0.00 0.00 0.00 0.00 0.00 0.00 0.00 0.00 0.00 0.00 0.00 0.00 0.00 0.00 0.00 0.00 0.00 0.00 0.00 0.00 0.00 0.00 0.00 0.00 0.00 0.00 0.00 0.00 0.00 0.00 0.00 0.00 0.00 0.00 0.00 0.00
0.00 0.01 0.01 0.01 0.02 0.00 0.00 0.00 0.00 0.00 0.00 0.00 0.00 0.00 0.00 0.00 0.00 0.00 0.00 0.00 0.00 0.00 0.00 0.00 0.00 0.00 0.00 0.00 0.00 0.00 0.00 0.00 0.00 0.00 0.00 0.00 0.00 0.00 0.00 0.00 0.00 0.00
0.00 0.01 0.01 0.01 0.01 0.00 0.00 0.00 0.00 0.00 0.00 0.00 0.00 0.00 0.00 0.00 0.00 0.00 0.00 0.00 0.00 0.00 0.00 0.00 0.00 0.00 0.00 0.00 0.00 0.00 0.00 0.00 0.00 0.00 0.00 0.00 0.00 0.00 0.00 0.00 0.00 0.00
0.01 0.00 0.00 0.00 0.00 0.00 0.00 0.00 0.00 0.00 0.00 0.00 0.00 0.00 0.00 0.00 0.00 0.00 0.00 0.00 0.00 0.00 0.00 0.00 0.00 0.00 0.00 0.00 0.00 0.00 0.00 0.00 0.00 0.00 0.00 0.00 0.00 0.00 0.00 0.00 0.00 0.00
0.01 0.01 0.00 0.00 0.01 0.00 0.00 0.00 0.00 0.00 0.00 0.00 0.00 0.00 0.00 0.00 0.00 0.00 0.00 0.00 0.00 0.00 0.00 0.00 0.00 0.00 0.00 0.00 0.00 0.00 0.00 0.00 0.00 0.00 0.00 0.00 0.00 0.00 0.00 0.00 0.00 0.00
0.55 0.36 0.21 0.04 0.02 0.02 0.01 0.00 0.02 0.02 0.00 0.00 0.00 0.00 0.00 0.00 0.00 0.00 0.00 0.00 0.00 0.00 0.00 0.00 0.00 0.00 0.00 0.00 0.00 0.00 0.00 0.00 0.00 0.00 0.00 0.00 0.00 0.00 0.00 0.00 0.00 0.00
0.41 0.11 0.13 0.10 0.09 0.08 0.09 0.01 0.00 0.00 0.00 0.00 0.00 0.00 0.00 0.00 0.00 0.00 0.00 0.00 0.00 0.00 0.00 0.00 0.00 0.00 0.00 0.00 0.00 0.00 0.00 0.00 0.00 0.00 0.00 0.00 0.00 0.00 0.00 0.00 0.00 0.00
0.02 0.00 0.06 0.20 0.42 0.26 0.20 0.28 0.11 0.09 0.04 0.00 0.00 0.00 0.00 0.01 0.00 0.00 0.00 0.00 0.00 0.00 0.00 0.00 0.00 0.00 0.00 0.00 0.00 0.00 0.00 0.00 0.00 0.00 0.00 0.00 0.00 0.00 0.00 0.00 0.00 0.00
0.03 0.00 0.00 0.02 0.01 0.02 0.01 0.06 0.15 0.10 0.04 0.01 0.00 0.01 0.01 0.01 0.00 0.00 0.00 0.00 0.00 0.00 0.00 0.00 0.00 0.00 0.00 0.00 0.00 0.00 0.00 0.00 0.00 0.00 0.00 0.00 0.00 0.00 0.00 0.00 0.00 0.00
0.01 0.00 0.00 0.00 0.02 0.05 0.04 0.04 0.00 0.00 0.00 0.00 0.00 0.00 0.00 0.00 0.00 0.00 0.00 0.00 0.01 0.01 0.00 0.00 0.00 0.00 0.00 0.00 0.00 0.00 0.00 0.00 0.00 0.00 0.00 0.00 0.00 0.00 0.00 0.00 0.00 0.00
0.00 0.00 0.00 0.00 0.00 0.00 0.00 0.00 0.00 0.00 0.00 0.00 0.00 0.00 0.00 0.00 0.00 0.00 0.00 0.00 0.00 0.00 0.00 0.00 0.00 0.00 0.00 0.00 0.00 0.00 0.00 0.00 0.00 0.00 0.00 0.00 0.00 0.00 0.00 0.00 0.00 0.00
0.00 0.00 0.00 0.00 0.00 0.00 0.00 0.00 0.00 0.00 0.00 0.00 0.00 0.00 0.00 0.00 0.00 0.00 0.00 0.00 0.00 0.00 0.00 0.00 0.00 0.00 0.00 0.00 0.00 0.00 0.00 0.00 0.00 0.00 0.00 0.00 0.00 0.00 0.00 0.00 0.00 0.00
0.00 0.00 0.00 0.00 0.00 0.00 0.00 0.00 0.00 0.00 0.00 0.00 0.00 0.00 0.00 0.00 0.00 0.00 0.00 0.00 0.00 0.00 0.00 0.00 0.00 0.00 0.00 0.00 0.00 0.00 0.01 0.00 0.01 0.02 0.01 0.00 0.00 0.00 0.00 0.00 0.00 0.00
0.00 0.00 0.00 0.00 0.00 0.00 0.00 0.00 0.00 0.00 0.00 0.00 0.00 0.00 0.00 0.00 0.00 0.00 0.00 0.00 0.00 0.00 0.00 0.00 0.00 0.00 0.00 0.00 0.00 0.00 0.00 0.00 0.01 0.00 0.00 0.00 0.00 0.00 0.00 0.00 0.00 0.00
0.00 0.00 0.00 0.00 0.00 0.00 0.00 0.00 0.00 0.00 0.00 0.00 0.00 0.00 0.00 0.00 0.00 0.00 0.00 0.00 0.00 0.00 0.00 0.00 0.00 0.00 0.00 0.00 0.00 0.00 0.00 0.00 0.00 0.00 0.00 0.00 0.00 0.00 0.00 0.00 0.00 0.00
0.00 0.00 0.00 0.00 0.00 0.00 0.00 0.00 0.00 0.00 0.00 0.00 0.00 0.00 0.00 0.00 0.00 0.00 0.00 0.00 0.00 0.00 0.00 0.00 0.00 0.00 0.00 0.00 0.00 0.00 0.00 0.00 0.00 0.00 0.00 0.00 0.01 0.00 0.00 0.00 0.00 0.00
0.00 0.00 0.00 0.00 0.00 0.00 0.00 0.00 0.00 0.00 0.00 0.00 0.00 0.00 0.00 0.00 0.00 0.00 0.00 0.00 0.00 0.00 0.00 0.00 0.00 0.00 0.00 0.00 0.00 0.00 0.00 0.00 0.00 0.00 0.01 0.01 0.01 0.02 0.00 0.03 0.00 0.01
0.00 0.00 0.00 0.00 0.00 0.00 0.00 0.00 0.00 0.00 0.00 0.00 0.00 0.00 0.00 0.00 0.00 0.00 0.00 0.00 0.00 0.00 0.00 0.00 0.00 0.00 0.00 0.00 0.00 0.00 0.00 0.00 0.00 0.00 0.00 0.02 0.01 0.01 0.09 0.15 0.04 0.00
0.00 0.00 0.00 0.00 0.00 0.00 0.00 0.00 0.00 0.00 0.00 0.00 0.00 0.00 0.00 0.00 0.00 0.00 0.00 0.00 0.00 0.00 0.00 0.00 0.00 0.00 0.00 0.00 0.00 0.00 0.00 0.00 0.00 0.00 0.00 0.00 0.00 0.00 0.00 0.00 0.00 0.00
0.00 0.00 0.00 0.00 0.00 0.00 0.00 0.00 0.00 0.00 0.00 0.00 0.00 0.00 0.00 0.00 0.00 0.00 0.00 0.00 0.00 0.00 0.00 0.00 0.00 0.00 0.00 0.00 0.00 0.00 0.00 0.00 0.00 0.00 0.00 0.01 0.00 0.00 0.00 0.00 0.00 0.00
0.00 0.00 0.00 0.00 0.00 0.00 0.00 0.00 0.00 0.00 0.00 0.00 0.00 0.00 0.00 0.00 0.00 0.00 0.00 0.00 0.00 0.00 0.00 0.00 0.00 0.00 0.00 0.00 0.00 0.00 0.00 0.00 0.00 0.00 0.00 0.00 0.00 0.00 0.00 0.00 0.00 0.00
0.00 0.00 0.00 0.00 0.00 0.00 0.00 0.00 0.00 0.00 0.00 0.00 0.00 0.00 0.00 0.00 0.00 0.00 0.00 0.00 0.00 0.00 0.00 0.00 0.00 0.00 0.00 0.00 0.00 0.00 0.00 0.00 0.00 0.00 0.00 0.00 0.00 0.00 0.00 0.00 0.00 0.00
MSLP
1017.33 1017.65 1018.01 1018.37 1018.61 1018.53 1018.53 1018.69 1018.85 1018.89 1019.01 1019.05 1019.05 1019.17 1019.21 1019.21 1019.33 1019.25 1019.25 1019.25 1019.25 1019.29 1019.33 1019.41 1019.53 1019.61 1019.73 1019.77 1019.81 1019.85 1019.97 1020.05 1020.09 1020.09 1020.13 1020.17 1020.25 1020.21 1020.29 1020.37 1020.41 1020.49
1017.33 1017.53 1017.81 1018.05 1018.41 1018.61 1018.61 1018.53 1018.73 1018.93 1019.09 1019.13 1019.13 1019.17 1019.17 1019.25 1019.29 1019.29 1019.33 1019.33 1019.33 1019.33 1019.37 1019.45 1019.53 1019.61 1019.73 1019.77 1019.85 1019.97 1020.13 1020.13 1020.21 1020.21 1020.17 1020.25 1020.37 1020.33 1020.41 1020.45 1020.53 1020.57
1017.21 1017.61 1017.77 1017.93 1018.05 1018.37 1018.49 1018.53 1018.65 1018.89 1019.09 1019.25 1019.33 1019.33 1019.25 1019.29 1019.37 1019.33 1019.33 1019.33 1019.37 1019.41 1019.45 1019.53 1019.61 1019.69 1019.77 1019.81 1019.89 1020.01 1020.13 1020.21 1020.29 1020.33 1020.33 1020.37 1020.41 1020.49 1020.61 1020.61 1020.65 1020.69
1017.17 1017.49 1017.65 1017.69 1017.73 1017.97 1018.25 1018.45 1018.65 1018.85 1019.13 1019.41 1019.49 1019.33 1019.25 1019.33 1019.33 1019.37 1019.41 1019.41 1019.49 1019.49 1019.49 1019.53 1019.61 1019.73 1019.77 1019.85 1019.97 1020.13 1020.21 1020.29 1020.41 1020.45 1020.49 1020.57 1020.53 1020.57 1020.69 1020.69 1020.77 1020.81
1016.93 1017.41 1017.41 1017.41 1017.49 1017.61 1017.93 1018.21 1018.45 1018.73 1019.01 1019.09 1019.29 1019.33 1019.29 1019.29 1019.37 1019.37 1019.41 1019.45 1019.45 1019.49 1019.49 1019.49 1019.53 1019.61 1019.69 1019.77 1019.89 1020.09 1020.17 1020.29 1020.45 1020.45 1020.53 1020.65 1020.69 1020.65 1020.77 1020.81 1020.85 1020.93
1016.61 1016.85 1017.09 1017.25 1017.45 1017.45 1017.81 1017.93 1018.09 1018.41 1018.73 1019.09 1019.09 1019.17 1019.17 1019.13 1019.21 1019.29 1019.33 1019.37 1019.33 1019.29 1019.33 1019.37 1019.53 1019.57 1019.65 1019.77 1019.89 1019.93 1020.05 1020.17 1020.33 1020.41 1020.57 1020.65 1020.73 1020.81 1020.85 1020.93 1021.01 1021.09
1016.49 1016.65 1016.97 1017.09 1017.21 1017.21 1017.41 1017.57 1017.81 1018.09 1018.33 1018.45 1018.85 1019.05 1019.09 1019.13 1019.13 1019.13 1019.17 1019.17 1019.17 1019.13 1019.05 1019.13 1019.29 1019.49 1019.61 1019.73 1019.81 1019.97 1020.01 1020.05 1020.25 1020.29 1020.45 1020.65 1020.73 1020.81 1020.97 1021.01 1021.09 1021.21
1016.61 1016.69 1016.89 1017.01 1017.05 1017.09 1017.25 1017.41 1017.69 1017.93 1018.09 1018.33 1018.45 1018.53 1018.69 1018.81 1018.85 1018.85 1018.81 1018.89 1019.01 1019.13 1019.17 1019.05 1019.01 1019.09 1019.25 1019.37 1019.49 1019.73 1019.85 1019.93 1020.05 1020.17 1020.29 1020.53 1020.65 1020.69 1020.89 1021.01 1021.09 1021.21
1017.41 1017.41 1017.25 1017.13 1017.33 1017.25 1017.33 1017.37 1017.49 1017.57 1017.65 1017.81 1018.01 1018.21 1018.37 1018.45 1018.57 1018.61 1018.57 1018.57 1018.61 1018.77 1019.05 1019.17 1019.09 1019.01 1018.97 1019.01 1019.09 1019.25 1019.49 1019.73 1019.81 1019.93 1020.09 1020.29 1020.45 1020.53 1020.65 1020.85 1020.97 1021.09
1017.45 1018.49 1018.25 1017.85 1017.65 1017.73 1017.65 1017.41 1017.49 1017.53 1017.49 1017.49 1017.65 1017.89 1018.09 1018.21 1018.25 1018.33 1018.49 1018.61 1018.57 1018.61 1018.69 1018.85 1019.01 1019.09 1019.09 1019.09 1019.09 1019.25 1019.41 1019.57 1019.73 1019.89 1020.01 1020.09 1020.17 1020.33 1020.45 1020.57 1020.65 1020.89
1017.17 1017.93 1017.93 1017.97 1018.45 1018.21 1018.13 1018.05 1017.65 1017.53 1017.49 1017.37 1017.49 1017.61 1017.69 1017.89 1018.01 1018.01 1018.17 1018.37 1018.53 1018.61 1018.69 1018.73 1018.73 1018.81 1018.93 1019.01 1019.09 1019.17 1019.25 1019.37 1019.49 1019.65 1019.85 1019.97 1020.09 1020.21 1020.33 1020.41 1020.53 1020.61
1017.37 1017.77 1017.89 1017.85 1018.45 1019.17 1019.01 1018.93 1018.73 1018.17 1017.57 1017.45 1017.53 1017.61 1017.77 1017.93 1018.01 1018.09 1018.05 1018.17 1018.41 1018.57 1018.61 1018.57 1018.53 1018.61 1018.69 1018.77 1018.89 1019.05 1019.17 1019.29 1019.37 1019.49 1019.61 1019.77 1019.89 1020.09 1020.13 1020.29 1020.37 1020.49
1017.53 1017.29 1017.53 1017.85 1018.01 1018.17 1018.49 1018.89 1018.73 1017.89 1017.53 1017.41 1017.53 1017.61 1017.73 1018.05 1018.09 1018.29 1018.25 1018.25 1018.29 1018.41 1018.57 1018.65 1018.69 1018.65 1018.65 1018.69 1018.81 1018.93 1019.05 1019.17 1019.29 1019.37 1019.45 1019.61 1019.69 1019.89 1020.05 1020.17 1020.25 1020.37
1016.85 1016.97 1017.25 1017.45 1017.65 1018.17 1018.69 1018.49 1017.81 1017.41 1017.29 1017.29 1017.37 1017.37 1017.37 1017.61 1017.81 1017.89 1018.01 1018.13 1018.25 1018.37 1018.29 1018.37 1018.49 1018.61 1018.65 1018.69 1018.77 1018.85 1018.93 1019.05 1019.17 1019.25 1019.33 1019.45 1019.57 1019.73 1019.93 1020.05 1020.13 1020.21
1016.69 1016.73 1016.85 1017.01 1017.17 1017.37 1017.45 1017.41 1017.37 1017.33 1017.33 1017.37 1017.45 1017.45 1017.49 1017.53 1017.73 1017.93 1018.09 1018.13 1018.17 1018.21 1018.21 1018.25 1018.25 1018.29 1018.41 1018.57 1018.69 1018.73 1018.81 1018.93 1019.05 1019.17 1019.21 1019.33 1019.49 1019.61 1019.73 1019.81 1019.93 1020.05
1016.65 1016.73 1016.77 1016.85 1016.85 1016.85 1016.97 1017.13 1017.17 1017.25 1017.29 1017.37 1017.45 1017.57 1017.65 1017.77 1017.85 1017.97 1017.97 1018.01 1018.05 1018.13 1018.17 1018.29 1018.29 1018.25 1018.21 1018.21 1018.29 1018.41 1018.57 1018.65 1018.85 1018.97 1019.09 1019.17 1019.33 1019.53 1019.65 1019.69 1019.77 1019.89
1016.61 1016.65 1016.81 1016.81 1016.81 1016.81 1016.81 1016.81 1017.01 1017.33 1017.41 1017.45 1017.49 1017.57 1017.57 1017.61 1017.69 1017.73 1017.77 1017.93 1018.09 1018.21 1018.25 1018.29 1018.25 1018.17 1018.05 1018.17 1018.29 1018.33 1018.41 1018.53 1018.65 1018.85 1018.93 1019.01 1019.17 1019.33 1019.49 1019.61 1019.81 1019.93
1016.53 1016.77 1016.81 1016.77 1016.85 1016.85 1016.93 1017.05 1017.09 1017.13 1017.25 1017.33 1017.41 1017.41 1017.41 1017.57 1017.65 1017.65 1017.73 1017.85 1018.01 1018.09 1018.13 1018.09 1018.09 1017.97 1017.93 1018.01 1018.13 1018.29 1018.45 1018.41 1018.49 1018.61 1018.73 1018.85 1018.97 1019.17 1019.25 1019.33 1019.53 1019.81
1016.65 1016.73 1016.77 1016.77 1016.81 1016.89 1016.97 1017.05 1017.05 1017.09 1017.09 1017.17 1017.21 1017.21 1017.41 1017.57 1017.49 1017.53 1017.53 1017.69 1017.81 1017.85 1017.89 1017.89 1017.89 1017.73 1017.81 1017.85 1017.97 1018.25 1018.61 1018.69 1018.61 1018.57 1018.65 1018.77 1018.85 1018.93 1019.01 1019.21 1019.49 1019.81
1016.73 1016.77 1016.77 1016.73 1016.73 1016.77 1016.89 1016.93 1017.05 1017.05 1017.09 1017.17 1017.13 1017.05 1017.05 1017.09 1017.17 1017.37 1017.53 1017.69 1017.73 1017.73 1017.69 1017.77 1017.77 1017.77 1017.89 1017.93 1017.97 1018.09 1018.33 1018.65 1018.57 1018.53 1018.53 1018.57 1018.65 1018.77 1018.97 1019.13 1019.41 1019.77
1016.65 1016.61 1016.69 1016.85 1016.97 1017.01 1016.97 1016.93 1016.97 1017.01 1017.09 1017.25 1017.33 1017.33 1017.29 1017.29 1017.29 1017.29 1017.33 1017.45 1017.61 1017.69 1017.73 1017.65 1017.89 1018.09 1018.01 1018.05 1018.05 1018.05 1018.17 1018.45 1018.53 1018.49 1018.53 1018.65 1018.85 1018.97 1019.17 1019.45 1019.69 1019.93
1016.41 1016.57 1016.69 1016.81 1016.81 1016.77 1016.81 1016.85 1016.89 1016.93 1016.93 1017.01 1017.01 1017.09 1017.21 1017.33 1017.41 1017.49 1017.41 1017.41 1017.41 1017.45 1017.45 1017.73 1018.13 1018.13 1017.93 1017.89 1017.93 1017.97 1018.25 1018.49 1018.53 1018.57 1018.69 1018.85 1019.01 1019.17 1019.37 1019.57 1019.65 1019.73
1016.33 1016.53 1016.69 1016.77 1016.73 1016.69 1016.77 1016.85 1016.93 1016.97 1017.01 1017.13 1017.05 1017.13 1017.17 1017.25 1017.37 1017.45 1017.53 1017.53 1017.53 1017.37 1017.37 1017.65 1017.89 1018.05 1017.97 1017.85 1017.89 1018.09 1018.29 1018.53 1018.65 1018.81 1018.93 1019.05 1019.21 1019.29 1019.37 1019.57 1019.77 1019.89
1016.49 1016.49 1016.53 1016.61 1016.65 1016.65 1016.77 1016.85 1016.97 1017.05 1017.05 1017.17 1017.13 1017.21 1017.25 1017.49 1017.61 1017.37 1017.41 1017.53 1017.53 1017.37 1017.33 1017.29 1017.65 1018.09 1018.05 1017.97 1018.01 1018.13 1018.13 1018.45 1018.73 1018.81 1019.01 1019.13 1019.37 1019.57 1019.85 1020.21 1020.37 1020.25
1016.45 1016.53 1016.61 1016.65 1016.69 1016.69 1016.69 1016.77 1016.85 1016.89 1016.93 1017.09 1017.13 1017.29 1017.53 1017.73 1017.61 1017.45 1017.49 1017.77 1018.09 1018.09 1018.13 1017.53 1017.81 1018.17 1018.25 1018.09 1018.09 1018.17 1018.29 1018.49 1018.65 1018.81 1019.01 1019.29 1019.53 1020.13 1020.69 1020.93 1021.01 1020.97
1016.45 1016.45 1016.49 1016.45 1016.49 1016.61 1016.77 1016.69 1016.73 1016.81 1016.81 1016.81 1017.09 1017.29 1017.41 1017.65 1017.73 1017.81 1017.77 1018.25 1018.65 1018.57 1018.65 1018.81 1018.37 1018.37 1018.49 1018.25 1018.21 1018.33 1018.45 1018.65 1018.77 1018.77 1019.09 1019.53 1019.89 1020.17 1020.69 1021.29 1021.37 1021.45
Thickness
5601 5597 5594 5591 5590 5589 5589 5589 5588 5587 5587 5587 5587 5586 5585 5585 5585 5585 5585 5585 5585 5585 5585 5585 5585 5584 5583 5583 5583 5581 5581 5580 5580 5579 5579 5579 5579 5579 5579 5578 5578 5578
5598 5595 5593 5591 5589 5586 5586 5587 5586 5585 5585 5585 5585 5584 5584 5584 5584 5584 5583 5583 5583 5583 5583 5583 5583 5582 5582 5581 5581 5580 5579 5578 5578 5578 5577 5577 5576 5576 5576 5575 5575 5575
5596 5593 5591 5590 5589 5586 5585 5585 5584 5583 5582 5581 5581 5581 5582 5582 5581 5582 5582 5581 5581 5581 5581 5581 5580 5580 5579 5579 5578 5577 5577 5576 5575 5575 5575 5574 5574 5573 5572 5572 5572 5571
5594 5591 5590 5590 5590 5587 5585 5584 5583 5581 5580 5578 5578 5579 5579 5580 5580 5579 5580 5579 5579 5579 5579 5579 5578 5578 5577 5577 5576 5575 5574 5573 5573 5572 5572 5571 5571 5571 5570 5570 5569 5568
5593 5591 5589 5589 5589 5588 5586 5585 5582 5580 5578 5576 5577 5577 5578 5578 5578 5578 5577 5577 5577 5577 5578 5578 5578 5577 5576 5575 5574 5573 5572 5571 5570 5570 5570 5569 5568 5568 5568 5567 5566 5566
5594 5591 5589 5589 5588 5587 5586 5585 5583 5581 5578 5576 5575 5575 5576 5577 5576 5576 5576 5576 5576 5577 5577 5577 5577 5576 5575 5574 5573 5572 5571 5570 5570 5569 5568 5567 5566 5566 5565 5564 5563 5563
5592 5590 5588 5587 5588 5587 5586 5585 5584 5582 5580 5577 5575 5574 5574 5575 5574 5575 5575 5575 5575 5576 5576 5577 5576 5575 5574 5574 5572 5571 5570 5570 5569 5567 5566 5565 5565 5564 5563 5562 5561 5560
5587 5586 5586 5585 5585 5586 5585 5584 5583 5581 5580 5578 5577 5575 5574 5574 5574 5574 5575 5575 5574 5574 5574 5574 5575 5575 5574 5574 5574 5571 5570 5569 5567 5567 5565 5564 5563 5562 5561 5560 5560 5559
5579 5577 5579 5581 5581 5581 5581 5581 5581 5581 5580 5580 5578 5577 5576 5575 5574 5574 5574 5575 5575 5574 5572 5572 5572 5573 5574 5574 5574 5572 5571 5569 5567 5566 5565 5563 5562 5562 5561 5560 5559 5558
5574 5569 5571 5574 5575 5574 5576 5577 5578 5578 5579 5579 5578 5577 5576 5575 5574 5574 5572 5572 5572 5572 5572 5571 5571 5571 5571 5571 5571 5571 5570 5568 5567 5565 5564 5563 5562 5561 5560 5559 5558 5557
5571 5567 5568 5569 5567 5566 5568 5569 5571 5574 5576 5577 5577 5576 5575 5574 5573 5573 5572 5570 5569 5569 5570 5570 5570 5570 5569 5569 5568 5569 5568 5567 5567 5565 5563 5562 5561 5560 5559 5558 5557 5556
5566 5565 5567 5566 5564 5562 5562 5562 5563 5567 5571 5573 5573 5573 5572 5571 5570 5570 5569 5569 5567 5566 5567 5567 5568 5568 5567 5567 5566 5565 5565 5564 5564 5563 5563 5562 5560 5559 5557 5556 5556 5555
5564 5564 5565 5565 5563 5562 5560 5559 5560 5564 5568 5569 5569 5569 5568 5567 5566 5566 5566 5567 5565 5563 5563 5564 5564 5564 5564 5564 5563 5563 5562 5562 5561 5560 5561 5560 5559 5558 5556 5555 5554 5554
5564 5563 5563 5563 5562 5559 5557 5557 5560 5564 5565 5566 5566 5566 5566 5565 5564 5563 5563 5563 5562 5562 5562 5562 5562 5562 5561 5560 5560 5560 5560 5559 5558 5557 5557 5557 5556 5556 5554 5552 5552 5551
5562 5561 5561 5560 5560 5558 5557 5558 5559 5560 5561 5561 5561 5562 5562 5562 5561 5559 5559 5558 5559 5560 5560 5560 5560 5559 5559 5559 5558 5557 5557 5556 5555 5554 5554 5553 5553 5552 5551 5550 5549 5548
5558 5557 5557 5556 5557 5557 5556 5556 5556 5555 5555 5555 5556 5556 5556 5556 5555 5555 5554 5555 5555 5556 5555 5556 5555 5555 5556 5556 5556 5556 5555 5554 5553 5552 5551 5550 5549 5548 5547 5546 5544 5543
5553 5552 5552 5552 5552 5553 5553 5553 5552 5551 5551 5551 5551 5552 5552 5551 5551 5551 5550 5550 5549 5550 5550 5550 5550 5551 5552 5552 5552 5551 5551 5551 5551 5549 5549 5547 5545 5545 5543 5542 5541 5539
5547 5547 5547 5547 5547 5547 5547 5547 5546 5546 5546 5546 5547 5547 5547 5547 5547 5546 5546 5545 5544 5544 5545 5545 5546 5547 5547 5547 5547 5546 5546 5546 5546 5546 5545 5544 5542 5541 5541 5539 5538 5535
5541 5541 5541 5542 5542 5542 5542 5541 5541 5541 5541 5541 5542 5542 5542 5543 5542 5542 5541 5540 5540 5540 5539 5540 5541 5542 5542 5542 5542 5541 5539 5540 5540 5541 5541 5540 5539 5538 5536 5536 5534 5531
5535 5535 5536 5536 5536 5536 5535 5535 5535 5535 5535 5535 5535 5536 5537 5537 5537 5537 5536 5535 5535 5534 5535 5535 5536 5536 5536 5535 5535 5535 5534 5533 5534 5534 5535 5534 5534 5533 5531 5531 5528 5526
5530 5530 5530 5529 5529 5529 5530 5530 5530 5529 5529 5528 5529 5529 5529 5530 5530 5530 5529 5529 5529 5529 5529 5529 5528 5528 5528 5529 5528 5528 5528 5528 5528 5528 5527 5527 5526 5525 5523 5522 5521 5519
5525 5524 5524 5524 5523 5524 5524 5525 5524 5524 5524 5524 5524 5524 5523 5523 5523 5523 5523 5523 5523 5524 5523 5522 5521 5521 5522 5522 5522 5522 5521 5520 5520 5520 5519 5518 5517 5516 5515 5513 5512 5511
5519 5519 5518 5518 5518 5519 5519 5519 5519 5518 5518 5518 5518 5518 5518 5517 5516 5516 5515 5516 5516 5517 5517 5517 5515 5514 5516 5516 5515 5515 5514 5513 5512 5511 5511 5510 5509 5508 5507 5505 5504 5503
5512 5512 5512 5511 5512 5512 5513 5512 5512 5512 5512 5512 5512 5511 5511 5509 5509 5509 5509 5508 5508 5509 5510 5511 5509 5508 5507 5508 5508 5507 5506 5505 5504 5503 5502 5502 5501 5498 5496 5495 5493 5492
5506 5506 5505 5505 5505 5505 5506 5506 5506 5506 5506 5506 5506 5504 5503 5502 5502 5503 5502 5500 5499 5499 5500 5502 5502 5500 5500 5501 5500 5500 5499 5498 5497 5496 5494 5493 5491 5488 5485 5483 5482 5482
5498 5499 5499 5499 5499 5499 5499 5499 5499 5500 5500 5499 5498 5497 5496 5495 5495 5494 5493 5491 5490 5490 5490 5491 5491 5492 5491 5492 5493 5493 5491 5491 5489 5488 5486 5484 5481 5479 5476 5474 5472 5471